Total_Precipitation_Accumulation
1.12 1.28 1.10 0.77 0.61 0.53 0.48 0.44 0.36 0.27 0.27 0.40 0.36 0.25 0.21 0.21 0.24 0.25 0.25 0.24 0.28 0.31 0.35 0.44 0.46 0.48 0.52 0.60 0.63 0.64 0.73 0.95 1.13 1.26 1.41 1.59 1.56 1.56 1.65 1.65 1.53 1.46 1.34 1.29
1.21 1.00 0.56 0.45 0.47 0.57 0.59 0.55 0.41 0.30 0.27 0.42 0.42 0.31 0.23 0.20 0.25 0.26 0.26 0.24 0.25 0.31 0.36 0.43 0.49 0.53 0.53 0.59 0.66 0.66 0.65 0.79 0.97 1.09 1.24 1.50 1.63 1.68 1.82 1.82 1.72 1.69 1.46 1.29
1.00 0.63 0.40 0.52 0.63 0.72 0.67 0.57 0.44 0.43 0.39 0.45 0.48 0.41 0.27 0.23 0.24 0.26 0.26 0.24 0.25 0.32 0.37 0.42 0.48 0.54 0.59 0.60 0.62 0.66 0.64 0.70 0.87 1.09 1.28 1.48 1.76 1.80 1.87 1.89 1.75 1.75 1.70 1.44
0.79 0.47 0.47 0.61 0.64 0.65 0.63 0.43 0.42 0.52 0.70 0.70 0.59 0.63 0.33 0.26 0.25 0.25 0.25 0.23 0.28 0.34 0.38 0.45 0.51 0.54 0.63 0.62 0.62 0.64 0.67 0.70 0.82 1.03 1.21 1.26 1.39 1.50 1.45 1.51 1.58 1.63 1.77 1.65
0.90 0.48 0.52 0.61 0.49 0.50 0.50 0.38 0.49 0.61 0.83 0.82 0.59 0.66 0.40 0.29 0.31 0.28 0.26 0.24 0.28 0.33 0.42 0.49 0.51 0.53 0.64 0.66 0.64 0.65 0.72 0.72 0.79 0.95 1.11 1.21 1.24 1.29 1.37 1.38 1.40 1.48 1.57 1.62
0.72 0.53 0.54 0.51 0.40 0.48 0.57 0.65 0.80 0.91 1.21 1.22 0.50 0.49 0.44 0.38 0.37 0.34 0.31 0.28 0.28 0.33 0.47 0.52 0.54 0.59 0.68 0.71 0.71 0.71 0.74 0.77 0.76 0.85 1.00 1.12 1.16 1.23 1.34 1.36 1.28 1.28 1.39 1.47
0.84 0.66 0.58 0.53 0.66 0.76 0.96 1.42 2.00 2.10 1.89 1.05 0.32 0.36 0.44 0.41 0.40 0.43 0.40 0.34 0.29 0.36 0.45 0.47 0.52 0.62 0.71 0.74 0.72 0.70 0.72 0.80 0.82 0.88 0.93 0.97 1.07 1.15 1.23 1.31 1.31 1.30 1.30 1.39
0.93 0.81 0.58 0.56 0.75 0.97 0.97 1.20 1.54 1.53 1.06 0.54 0.29 0.33 0.36 0.34 0.33 0.36 0.37 0.35 0.32 0.34 0.40 0.44 0.44 0.50 0.61 0.73 0.78 0.73 0.67 0.71 0.81 0.91 0.91 0.94 1.03 1.13 1.12 1.15 1.23 1.28 1.27 1.32
0.98 0.74 0.43 0.41 0.48 0.69 0.98 0.95 0.79 1.05 0.79 0.57 0.40 0.31 0.27 0.21 0.22 0.33 0.37 0.37 0.38 0.34 0.37 0.38 0.38 0.42 0.47 0.56 0.65 0.74 0.72 0.70 0.71 0.83 0.95 0.94 1.01 1.09 1.08 1.06 1.10 1.12 1.11 1.15
1.15 0.99 0.53 0.45 0.59 0.69 0.79 0.92 1.09 1.47 1.34 0.79 0.41 0.33 0.37 0.28 0.25 0.32 0.41 0.42 0.46 0.43 0.39 0.36 0.34 0.38 0.41 0.45 0.49 0.62 0.75 0.75 0.77 0.78 0.89 0.96 0.98 1.04 1.09 1.09 1.08 1.11 1.15 1.16
1.08 1.24 0.87 0.71 0.83 0.81 0.73 1.01 1.35 1.43 1.17 0.92 0.57 0.42 0.42 0.35 0.30 0.33 0.43 0.48 0.51 0.51 0.50 0.44 0.36 0.37 0.40 0.47 0.52 0.54 0.66 0.76 0.81 0.77 0.81 0.90 0.98 1.00 1.09 1.17 1.16 1.14 1.21 1.27
1.03 1.36 1.09 0.78 0.60 0.50 0.63 0.78 1.06 1.42 1.10 0.75 0.65 0.46 0.33 0.30 0.30 0.33 0.40 0.47 0.49 0.48 0.48 0.45 0.39 0.38 0.42 0.49 0.53 0.54 0.64 0.70 0.78 0.82 0.83 0.86 0.97 1.02 1.06 1.13 1.21 1.20 1.22 1.27
1.45 1.81 1.57 1.15 0.90 0.76 0.79 0.72 0.78 1.05 1.16 0.91 0.77 0.45 0.26 0.26 0.28 0.30 0.33 0.38 0.41 0.40 0.42 0.39 0.40 0.42 0.48 0.51 0.53 0.58 0.65 0.68 0.70 0.76 0.85 0.87 0.90 0.99 1.10 1.17 1.21 1.22 1.20 1.24
1.76 1.91 1.43 1.15 0.89 0.80 0.80 0.65 0.63 0.97 1.37 0.91 0.51 0.35 0.27 0.26 0.27 0.29 0.30 0.33 0.38 0.34 0.39 0.40 0.42 0.46 0.52 0.55 0.56 0.61 0.66 0.69 0.75 0.78 0.80 0.91 0.97 0.98 1.05 1.14 1.20 1.27 1.28 1.26
1.75 1.74 0.90 0.56 0.40 0.40 0.48 0.46 0.48 0.67 0.74 0.70 0.43 0.34 0.37 0.36 0.36 0.35 0.36 0.36 0.35 0.35 0.41 0.45 0.48 0.52 0.58 0.61 0.62 0.69 0.75 0.77 0.86 0.97 0.94 0.92 0.98 1.00 0.98 1.05 1.09 1.17 1.25 1.26
1.54 1.61 0.92 0.63 0.39 0.37 0.40 0.34 0.36 0.42 0.42 0.41 0.33 0.36 0.36 0.33 0.31 0.29 0.31 0.37 0.38 0.40 0.46 0.50 0.51 0.55 0.64 0.71 0.80 0.88 0.95 0.95 1.00 1.10 1.11 0.99 0.96 0.96 0.99 1.02 1.04 1.07 1.13 1.15
1.38 1.47 1.37 0.91 0.48 0.66 0.71 0.44 0.40 0.40 0.42 0.41 0.44 0.41 0.33 0.31 0.30 0.31 0.32 0.35 0.40 0.42 0.46 0.50 0.53 0.59 0.68 0.80 0.95 1.07 1.06 1.02 1.08 1.12 1.18 1.14 1.02 0.95 0.96 0.96 0.97 0.97 0.99 1.04
1.09 1.23 1.67 1.27 0.92 1.18 0.66 0.33 0.35 0.36 0.39 0.40 0.41 0.38 0.35 0.35 0.31 0.29 0.29 0.32 0.37 0.43 0.50 0.56 0.63 0.64 0.70 0.83 0.97 1.05 1.08 1.06 1.12 1.16 1.14 1.10 1.01 0.92 0.94 0.97 0.93 0.87 0.88 0.94
0.66 1.15 1.81 1.60 1.21 0.69 0.29 0.23 0.33 0.42 0.46 0.42 0.40 0.35 0.33 0.30 0.27 0.28 0.29 0.31 0.37 0.45 0.52 0.59 0.65 0.65 0.68 0.76 0.88 0.93 0.96 0.96 1.01 1.07 1.06 1.03 0.99 0.94 0.97 1.02 0.96 0.87 0.87 0.89
0.68 1.12 1.95 1.78 1.40 0.70 0.31 0.19 0.24 0.40 0.53 0.38 0.35 0.38 0.37 0.38 0.53 0.40 0.34 0.30 0.30 0.33 0.39 0.50 0.59 0.56 0.57 0.66 0.72 0.77 0.82 0.83 0.84 0.90 0.94 0.99 0.95 0.94 0.98 1.04 0.99 0.95 0.92 0.94
1.06 1.62 1.89 1.53 1.32 0.59 0.26 0.17 0.23 0.57 0.67 0.40 0.37 0.39 0.46 0.57 0.63 0.45 0.33 0.30 0.30 0.30 0.33 0.38 0.49 0.57 0.61 0.69 0.72 0.73 0.76 0.79 0.78 0.78 0.81 0.92 0.95 0.94 0.95 1.00 1.03 1.02 1.01 1.03
0.83 1.15 1.20 1.19 1.42 0.74 0.26 0.25 0.48 0.66 0.44 0.38 0.38 0.42 0.51 0.47 0.36 0.31 0.32 0.33 0.30 0.29 0.32 0.37 0.46 0.58 0.66 0.70 0.70 0.67 0.74 0.76 0.72 0.76 0.78 0.83 0.91 0.91 0.93 0.96 0.96 0.95 1.02 1.10
0.66 0.86 0.92 0.88 0.81 0.48 0.35 0.43 0.47 0.45 0.46 0.45 0.53 0.53 0.52 0.48 0.41 0.38 0.36 0.32 0.32 0.32 0.34 0.40 0.47 0.57 0.64 0.65 0.65 0.68 0.73 0.74 0.72 0.74 0.78 0.83 0.89 0.90 0.89 0.90 0.91 0.89 0.92 1.02
0.47 0.49 0.66 0.64 0.47 0.35 0.32 0.29 0.29 0.32 0.42 0.47 0.49 0.51 0.53 0.56 0.49 0.44 0.42 0.41 0.39 0.38 0.39 0.42 0.46 0.54 0.59 0.58 0.61 0.71 0.75 0.74 0.72 0.79 0.83 0.87 0.92 0.95 0.90 0.85 0.85 0.87 0.93 1.11
0.41 0.42 0.49 0.49 0.37 0.32 0.30 0.30 0.31 0.34 0.34 0.34 0.34 0.39 0.50 0.57 0.53 0.45 0.45 0.47 0.49 0.48 0.47 0.48 0.52 0.59 0.58 0.53 0.55 0.67 0.76 0.77 0.77 0.78 0.84 0.90 0.94 0.95 0.93 0.87 0.88 0.92 0.96 1.20
0.37 0.41 0.47 0.46 0.35 0.37 0.36 0.32 0.33 0.37 0.36 0.36 0.38 0.39 0.42 0.46 0.47 0.43 0.45 0.48 0.49 0.51 0.54 0.53 0.52 0.53 0.53 0.50 0.51 0.60 0.69 0.76 0.78 0.78 0.80 0.87 0.96 0.98 0.93 0.88 0.90 0.94 0.97 1.08